Location: McMath-Hulbert Observatory
(42.6964°N, 83.3187°W)
Time: 11:43:37
(UTC-04:00)

Hubble Space Telescope - Visible Passes

Search period start: 22 October 2017 00:00
Search period end: 01 November 2017 00:00
Orbit: 537 x 541 km, 28.5° (Epoch: 22 October)

Date Brightness Start Highest point End Pass type
(mag) Time Alt. Az. Time Alt. Az. Time Alt. Az.
24 Oct 3.3 19:47:58 10° S 19:48:37 10° S 19:49:16 10° SSE visible
25 Oct 3.3 19:37:13 10° SSW 19:38:16 11° S 19:39:20 10° SSE visible
26 Oct 3.3 19:26:43 10° SSW 19:27:56 11° S 19:29:09 10° SSE visible
27 Oct 3.4 19:16:23 10° SSW 19:17:36 11° S 19:18:49 10° SSE visible
28 Oct 3.4 19:06:11 10° SSW 19:07:16 11° S 19:08:20 10° S visible
29 Oct 3.6 18:56:15 10° SSW 18:56:55 10° S 18:57:35 10° S visible
